• In Deutschland
  • Länderverzeichnis
  • Für 7 Tage
  • Wassertemperatur
  • Satellitenkarten
  • Wetterkarte
  • Widgets
  • user-avatar
    Anmelden

    Stündliche Wetter Mykhailivka Persha

    Heute, 21 Juli, Samstag

    Zeit Temperatur Niederschläge Wind Luftdruck Luftfeuchtigkeit
    00:00 +21°C° 0 mm 1 m/S 742 mmHg 86%
    01:00 +20°C° 0 mm 1 m/S 742 mmHg 87%
    02:00 +20°C° 0 mm 1 m/S 742 mmHg 90%
    03:00 +20°C° 0 mm 1 m/S 742 mmHg 91%
    04:00 +20°C° 0 mm 1 m/S 742 mmHg 91%
    05:00 +20°C° 0 mm 1 m/S 742 mmHg 92%
    06:00 +22°C° 0 mm 1 m/S 742 mmHg 87%
    07:00 +23°C° 0 mm 2 m/S 742 mmHg 82%
    08:00 +25°C° 0 mm 2 m/S 742 mmHg 77%
    09:00 +26°C° 0 mm 2 m/S 742 mmHg 72%
    10:00 +27°C° 0 mm 2 m/S 742 mmHg 67%
    11:00 +28°C° 0 mm 2 m/S 742 mmHg 63%
    12:00 +28°C° 0,2 mm 3 m/S 742 mmHg 62%
    13:00 +29°C° 0,2 mm 3 m/S 742 mmHg 61%
    14:00 +29°C° 0 mm 2 m/S 742 mmHg 59%
    15:00 +28°C° 0,4 mm 2 m/S 742 mmHg 62%
    16:00 +28°C° 0,4 mm 2 m/S 742 mmHg 64%
    17:00 +28°C° 0,4 mm 3 m/S 743 mmHg 67%
    18:00 +26°C° 0,2 mm 2 m/S 743 mmHg 73%
    19:00 +25°C° 0,2 mm 2 m/S 743 mmHg 78%
    20:00 +23°C° 0,2 mm 2 m/S 743 mmHg 84%
    21:00 +21°C° 0 mm 2 m/S 743 mmHg 86%
    22:00 +21°C° 0 mm 2 m/S 743 mmHg 89%
    23:00 +20°C° 0 mm 2 m/S 743 mmHg 91%

    Morgen, 22 Juli, Sonntag

    Zeit Temperatur Niederschläge Wind Luftdruck Luftfeuchtigkeit
    00:00 +20°C° 0 mm 2 m/S 743 mmHg 92%
    01:00 +19°C° 0 mm 2 m/S 743 mmHg 93%
    02:00 +19°C° 0 mm 2 m/S 743 mmHg 94%
    03:00 +19°C° 0 mm 2 m/S 743 mmHg 94%
    04:00 +19°C° 0 mm 2 m/S 743 mmHg 95%
    05:00 +19°C° 0 mm 2 m/S 743 mmHg 95%
    06:00 +20°C° 0 mm 2 m/S 743 mmHg 90%
    07:00 +21°C° 0 mm 2 m/S 743 mmHg 86%
    08:00 +23°C° 0 mm 2 m/S 743 mmHg 81%
    09:00 +24°C° 0,3 mm 3 m/S 742 mmHg 79%
    10:00 +25°C° 0,3 mm 3 m/S 742 mmHg 76%
    11:00 +26°C° 0,3 mm 3 m/S 742 mmHg 74%
    12:00 +26°C° 0,6 mm 3 m/S 742 mmHg 71%
    13:00 +27°C° 0,6 mm 4 m/S 742 mmHg 69%
    14:00 +28°C° 0,6 mm 4 m/S 742 mmHg 67%
    15:00 +27°C° 0,3 mm 3 m/S 742 mmHg 68%
    16:00 +27°C° 0,3 mm 3 m/S 742 mmHg 69%
    17:00 +27°C° 0,3 mm 3 m/S 741 mmHg 71%
    18:00 +26°C° 0,3 mm 3 m/S 741 mmHg 77%
    19:00 +24°C° 0,3 mm 2 m/S 741 mmHg 82%
    20:00 +23°C° 0,3 mm 2 m/S 741 mmHg 88%
    21:00 +21°C° 0,2 mm 2 m/S 741 mmHg 90%
    22:00 +21°C° 0,2 mm 2 m/S 742 mmHg 92%
    23:00 +20°C° 0,2 mm 2 m/S 742 mmHg 94%

    übermorgen, 23 Juli, Montag

    Zeit Temperatur Niederschläge Wind Luftdruck Luftfeuchtigkeit
    00:00 +20°C° 0 mm 2 m/S 742 mmHg 94%
    01:00 +19°C° 0 mm 2 m/S 741 mmHg 95%
    02:00 +19°C° 0 mm 2 m/S 741 mmHg 96%
    03:00 +19°C° 0 mm 2 m/S 741 mmHg 96%
    04:00 +19°C° 0 mm 2 m/S 742 mmHg 96%
    05:00 +19°C° 0 mm 2 m/S 742 mmHg 96%
    06:00 +20°C° 0 mm 2 m/S 742 mmHg 91%
    07:00 +22°C° 0 mm 3 m/S 742 mmHg 86%
    08:00 +24°C° 0 mm 3 m/S 742 mmHg 81%
    09:00 +25°C° 0,1 mm 3 m/S 742 mmHg 76%
    10:00 +26°C° 0,1 mm 3 m/S 742 mmHg 71%
    11:00 +27°C° 0,1 mm 3 m/S 742 mmHg 66%
    12:00 +28°C° 0,8 mm 3 m/S 742 mmHg 65%
    13:00 +28°C° 0,8 mm 4 m/S 741 mmHg 64%
    14:00 +28°C° 0,8 mm 4 m/S 741 mmHg 62%
    15:00 +28°C° 0,9 mm 3 m/S 741 mmHg 64%
    16:00 +28°C° 0,9 mm 3 m/S 741 mmHg 67%
    17:00 +28°C° 0,9 mm 2 m/S 741 mmHg 69%
    18:00 +26°C° 0,5 mm 2 m/S 742 mmHg 72%
    19:00 +25°C° 0,5 mm 1 m/S 742 mmHg 76%
    20:00 +23°C° 0,5 mm 1 m/S 742 mmHg 79%
    21:00 +23°C° 0 mm 1 m/S 742 mmHg 80%
    22:00 +21°C° 0 mm 2 m/S 742 mmHg 82%
    23:00 +21°C° 0 mm 2 m/S 742 mmHg 83%

    24 Juli, Dienstag

    Zeit Temperatur Niederschläge Wind Luftdruck Luftfeuchtigkeit
    00:00 +21°C° 0 mm 2 m/S 742 mmHg 84%
    01:00 +20°C° 0 mm 2 m/S 742 mmHg 84%
    02:00 +20°C° 0 mm 2 m/S 742 mmHg 85%
    03:00 +20°C° 0 mm 2 m/S 743 mmHg 85%
    04:00 +20°C° 0 mm 2 m/S 743 mmHg 85%
    05:00 +20°C° 0 mm 2 m/S 743 mmHg 85%
    06:00 +22°C° 0 mm 3 m/S 743 mmHg 80%
    07:00 +24°C° 0 mm 3 m/S 743 mmHg 76%
    08:00 +26°C° 0 mm 3 m/S 743 mmHg 71%
    09:00 +27°C° 0,3 mm 3 m/S 744 mmHg 66%
    10:00 +29°C° 0,3 mm 4 m/S 744 mmHg 61%
    11:00 +30°C° 0,3 mm 4 m/S 744 mmHg 55%
    12:00 +30°C° 0,1 mm 3 m/S 744 mmHg 54%
    13:00 +31°C° 0,1 mm 3 m/S 744 mmHg 53%
    14:00 +31°C° 0,1 mm 3 m/S 744 mmHg 51%
    15:00 +30°C° 0,1 mm 3 m/S 744 mmHg 55%
    16:00 +30°C° 0,1 mm 3 m/S 744 mmHg 60%
    17:00 +29°C° 0,1 mm 2 m/S 744 mmHg 64%
    18:00 +27°C° 0,1 mm 3 m/S 744 mmHg 68%
    19:00 +26°C° 0,1 mm 3 m/S 745 mmHg 73%
    20:00 +24°C° 0,1 mm 3 m/S 745 mmHg 77%
    21:00 +24°C° 0 mm 3 m/S 745 mmHg 80%
    22:00 +22°C° 0 mm 3 m/S 745 mmHg 82%
    23:00 +21°C° 0 mm 3 m/S 745 mmHg 84%

    25 Juli, Mittwoch

    Zeit Temperatur Niederschläge Wind Luftdruck Luftfeuchtigkeit
    00:00 +21°C° 0,1 mm 3 m/S 745 mmHg 86%
    01:00 +20°C° 0,1 mm 3 m/S 745 mmHg 89%
    02:00 +20°C° 0,1 mm 3 m/S 745 mmHg 91%
    03:00 +20°C° 0 mm 3 m/S 745 mmHg 91%
    04:00 +20°C° 0 mm 3 m/S 745 mmHg 92%
    05:00 +20°C° 0 mm 3 m/S 745 mmHg 92%
    06:00 +21°C° 0 mm 3 m/S 746 mmHg 87%
    07:00 +24°C° 0 mm 3 m/S 746 mmHg 83%
    08:00 +26°C° 0 mm 3 m/S 746 mmHg 78%
    09:00 +27°C° 0,7 mm 4 m/S 746 mmHg 71%
    10:00 +28°C° 0,7 mm 4 m/S 746 mmHg 65%
    11:00 +30°C° 0,7 mm 4 m/S 746 mmHg 58%
    12:00 +30°C° 0,2 mm 4 m/S 746 mmHg 58%
    13:00 +30°C° 0,2 mm 4 m/S 746 mmHg 57%
    14:00 +30°C° 0,2 mm 4 m/S 746 mmHg 57%
    15:00 +30°C° 0,3 mm 3 m/S 746 mmHg 61%
    16:00 +29°C° 0,3 mm 3 m/S 746 mmHg 65%
    17:00 +29°C° 0,3 mm 3 m/S 746 mmHg 70%
    18:00 +27°C° 0,1 mm 3 m/S 746 mmHg 74%
    19:00 +26°C° 0,1 mm 4 m/S 747 mmHg 79%
    20:00 +23°C° 0,1 mm 4 m/S 747 mmHg 84%
    21:00 +24°C° 0 mm 3 m/S 747 mmHg 86%
    22:00 +22°C° 0 mm 3 m/S 747 mmHg 88%
    23:00 +21°C° 0 mm 3 m/S 747 mmHg 90%

    26 Juli, Donnerstag

    Zeit Temperatur Niederschläge Wind Luftdruck Luftfeuchtigkeit
    00:00 +21°C° 0,4 mm 3 m/S 747 mmHg 91%
    01:00 +20°C° 0,4 mm 3 m/S 747 mmHg 92%
    02:00 +20°C° 0,4 mm 3 m/S 747 mmHg 93%
    03:00 +20°C° 0 mm 3 m/S 747 mmHg 92%
    04:00 +19°C° 0 mm 3 m/S 747 mmHg 92%
    05:00 +19°C° 0 mm 3 m/S 747 mmHg 91%
    06:00 +20°C° 0 mm 4 m/S 747 mmHg 86%
    07:00 +22°C° 0 mm 4 m/S 748 mmHg 81%
    08:00 +23°C° 0 mm 4 m/S 748 mmHg 77%
    09:00 +25°C° 0 mm 4 m/S 748 mmHg 72%
    10:00 +27°C° 0 mm 4 m/S 748 mmHg 68%
    11:00 +28°C° 0 mm 4 m/S 748 mmHg 64%
    12:00 +29°C° 0 mm 4 m/S 748 mmHg 63%
    13:00 +30°C° 0 mm 4 m/S 748 mmHg 62%
    14:00 +30°C° 0 mm 4 m/S 748 mmHg 62%
    15:00 +30°C° 0,1 mm 4 m/S 748 mmHg 64%
    16:00 +30°C° 0,1 mm 4 m/S 748 mmHg 66%
    17:00 +29°C° 0,1 mm 4 m/S 748 mmHg 68%
    18:00 +28°C° 0 mm 4 m/S 748 mmHg 69%
    19:00 +27°C° 0 mm 3 m/S 748 mmHg 71%
    20:00 +26°C° 0 mm 3 m/S 748 mmHg 73%
    21:00 +26°C° 0 mm 3 m/S 748 mmHg 71%
    22:00 +26°C° 0 mm 4 m/S 748 mmHg 69%
    23:00 +26°C° 0 mm 4 m/S 748 mmHg 68%
    Mehr zeigen